Starlink 3679

operational
NORAD ID: 51973 Int'l Des: 2022-025 Owner: SPXS Country: US Constellation: starlink
LEOCIRCULARSTARLINK_TYPE

About Starlink 3679

Description loading...

Live Position

Loading 3D Globe...

Upcoming Passes

Altitude History

Altitude vs Time

uPlot chart will show altitude changes over time

Two-Line Element Set

1 51973U 22025T 25259.26821077 .00000359 00000-0 43025-4 0 9997
2 51973 53.0543 93.8365 0001438 95.8391 264.2762 15.06397483194630
Epoch: Sep 16, 2025 • Age: 6 hours

Current Status

Altitude 554.8 km
Velocity 7.58 km/s
Sub-Earth Point -24.10°S, 112.66°W
Launch Date Mar 9, 2022
Age 3.5 years
Type internet

Technical Details

Classification Payload
Mass 297.00 kg
Dry Mass 275.00 kg
Total Mass 297.00 kg
Length 0.20 m
Diameter 2.80 m
Span 9.00 m
Shape Box + pan
Manufacturer SPXS
Bus Type Starlink
Phase Status In Orbit
Owner/State SPXS/US

Large Constellations

Loading constellations...